Regional Weather Roundup
Issued by NWS Albany, NY

Home | Current Version | Previous Version | Text Only | Print | Product List | Glossary On
Versions: 1 2 3 4 5 6 7 8 9 10 11 12 13 14 15 16 17 18 19 20 21 22 23 24 25 26 27
000
ASUS41 KALY 180310
RWRALY

NEW YORK STATE HOURLY WEATHER ROUNDUP
NATIONAL WEATHER SERVICE ALBANY NY
1000 PM EST WED JAN 17 2018

NOTE: "FAIR" INDICATES FEW OR NO CLOUDS BELOW 12,000 FEET WITH NO
SIGNIFICANT WEATHER AND/OR NO OBSTRUCTIONS TO VISIBILITY.

NYZ032-033-038>043-046>054-057>066-NYZ062>081-082-084-180400-
EAST


CITY           SKY/WX    TMP DP  RH WIND       PRES   REMARKS
ALBANY         FAIR       9   3  77 CALM      30.19F
GLENS FALLS    FAIR      16  11  80 SW7       30.15F WCI   6
POUGHKEEPSIE   FAIR      20  12  71 N5        30.18S WCI  13
NEWBURGH       MOCLDY    16  12  86 NW7       30.17F WCI   6
MONTGOMERY     FAIR      18   7  62 NW13      30.16S WCI   5
WHITE PLAINS   MOCLDY    23  18  81 NW10      30.13S WCI  12
ISLIP          CLOUDY    29  23  78 N12       30.13S WCI  19
NEW YORK CITY  CLOUDY    25  14  63 NW17      30.19R WCI  12
CENTRAL PARK   CLOUDY    23  10  57 NW12      30.20S WCI  12
$$

NYZ005>009-017-018-044>046-055-056-180400-
CENTRAL


CITY           SKY/WX    TMP DP  RH WIND       PRES   REMARKS
FULTON         FAIR      13   6  74 S5        30.16F WCI   5
SYRACUSE       FAIR       8   6  92 CALM      30.17F
ROME           FAIR       3   2  95 CALM      30.19F
ELMIRA         FAIR      13   7  77 SW6       30.17F WCI   4
BINGHAMTON     FAIR      10   4  76 W10       30.09F WCI  -4
MONTICELLO     FAIR       7   4  87 W3        30.12F
$$

NYZ026>034-041>043-087-180400-
NORTH


CITY           SKY/WX    TMP DP  RH WIND       PRES   REMARKS
WATERTOWN      LGT SNOW  19  15  84 S12       30.12F FOG     WCI   7
FORT DRUM      NOT AVBL
OGDENSBURG     FLURRIES  24  19  84 SW16G25   30.07F WCI  10
MASSENA        CLOUDY    22  18  85 SW12      30.08F WCI  10
SARANAC LAKE   CLOUDY    13  10  88 SW9       29.98F WCI   1
PLATTSBURGH    FAIR      18   9  68 S6        30.09F WCI  10
$$

NYZ001>004-010>016-019>021-085-180400-
WEST


CITY           SKY/WX    TMP DP  RH WIND       PRES   REMARKS
NIAGARA FALLS  MOCLDY    22  14  71 SW24G36   30.14F HAZE    WCI   5
BUFFALO        CLOUDY    16  10  77 SW20G25   30.16F WCI  -1
DUNKIRK        FAIR      16   8  71 SW15      30.22F WCI   1
JAMESTOWN      FAIR       8   5  87 SW13      30.16F WCI  -8
WELLSVILLE     FAIR      10   6  84 W13G21    30.11F WCI  -5
ROCHESTER      FAIR      15   8  73 SW14      30.14F WCI   0
PENN YAN       FAIR      16   5  62 S10       30.13F WCI   4
$$

             KEY
       WCI = WIND CHILL INDEX
       VSB = VISIBILITY
       HX  = HEAT INDEX
$$




USA.gov is the U.S. government's official web portal to all federal, state and local government web resources and services.